Погода в Михайловке

Погода в Михайловке : погода сейчас, прогноз погоды и архив. Всё, что Вы хотите узнать о погоде в Михайловке!

Поиск расширенной информации на нашем сайте:

Другие новости

Новости СМИ2

Главная страница сайта

Новости сайта

03.07.2017

Напоминаем, что на нашем специализированном сайте Метеоцентр.Азия вы можете получить высокодетализированные автоматические прогнозы погоды по пунктам России, СНГ и мира в авиационном формате (включающие направление и скорость ветра, видимость, явления погоды, количество и форму облачности, нижнюю и верхнюю границу облачности).


Погода в Михайловке - сегодня

Время (UTC), дата Ветер
(°,м/с) 
Видим.   Явления Облачность Т
(°С)
Тd
(°С)
f(%) Тe
(°С)
Pmin
(гПа)
dP
(гПа)
Po
(мм)
O2
(г/м3)
Тmin Tmax R s Состояние
почвы
15 21.05.18 280 (З) 10 км    8/5 300 м кучево-дожд., верхняя 
[Cb calv|Ci fib]
+22 +8.2 41 +22  1011.1  0.5  748  278    +30.7       
18 21.05.18 270 (З) н/о    10/3 300 м кучево-дожд., средняя, верхняя 
[Cb calv|Ac trans|Ci fib]
+17.9 +9.3 57 +18  1011.8  0.5  749  282    +30.7       
21 21.05.18 320 (СЗ) н/о    4/3 300 м кучево-дожд., верхняя 
[Cb calv|Ci fib]
+12.6 +9.2 80 +13  1011.8  -0.3  749  287           
03 22.05.18 360 (С) 10 км  слаб. ливневой дождь  10/5 300 м кучево-дожд., средняя 
[Cb calv|Ac trans]
+10.3 +9.5 95 +10  1010.8  -1.1  748  289         
09 22.05.18 350 (С) 10 км    10/6 300 м кучево-дожд., средняя 
[Cb calv|Ac trans]
+9.2 +6.5 83 +8  1009.4  -1.5  747  290           
12 22.05.18 290 (З) 10 км    10/6 300 м кучево-дожд., средняя 
[Cb calv|Ac trans]
+10.1 +5.3 72 +9  1007.6  -1.7  745  289           
21 22.05.18 210 (ЮЗ) н/о    10/4 300 м кучево-дожд., средняя, верхняя 
[Cb calv|Ac trans|Ci fib]
+7.3 +5.6 89 +7  1000.1  -3.4  740  289           
03 23.05.18 330 (СЗ) 13{16}  10 км  слаб. ливневой дождь  10/6 300 м кучево-дожд., средняя 
[Cb calv|Ac trans]
+4.2 +3.5 95 1001.1  1.9  740  293         
18 23.05.18 330 (СЗ) н/о    ясно 
+3.8 -3 61 +1  1021.2  2.3  755  300    +9.6  0.0     
21 23.05.18 270 (З) н/о    ясно 
-0.4 -2.6 85 -2  1022.3  0.9  756  305           
00 24.05.18 230 (ЮЗ) 10 км    10/0 верхняя 
[Ci fib]
+0.8 -2.1 81 1023.5  1.3  757  304           
06 24.05.18 210 (ЮЗ) 10 км    10/0 средняя, верхняя 
[Ac trans|Ci fib]
+12 +0.4 45 +11  1020.5  -1.8  755  291  -1.6         
09 24.05.18 210 (ЮЗ) 10 км    10/3 300 м кучево-дожд., средняя, верхняя 
[Cb calv|Ac trans|Ci fib]
+14.2 +1.1 41 +14  1017.9  -2.5  753  288           
21 24.05.18 200 (Ю) н/о  {ливн. осадки}  10/8 300 м кучево-дожд., верхняя 
[Cb calv|Ci fib]
+9.5 +8.6 94 +8  1006  -3  744  288           
09 25.05.18 300 (СЗ) 10 км    10/5 600 м верхняя 
[Cu med, cong|Ci fib]
+18.6 +11.4 63 +22  1010.1  0.7  748  280           
12 25.05.18 270 (З) 10 км    10/4 300 м кучево-дожд., средняя, верхняя 
[Cb calv|Ac trans|Ci fib]
+17.6 +10.9 65 +20  1010.2  0.1  748  281           
21 25.05.18 070 (В) н/о    10/8 300 м кучево-дожд., средняя 
[Cb calv|Ac trans]
+10.9 +10.4 97 +13  1008.5  -1.8  746  287           
00 26.05.18 тихо ()   10 км    10/3 300 м кучево-дожд., средняя 
[Cb calv|Ac trans]
+10.9 +10.4 97 +13  1008.2  -0.3  746  287           
03 26.05.18 100 (В) 4000 м  дымка  10/4 300 м кучево-дожд., средняя 
[Cb calv|Ac trans]
+12.2 +11.7 97 +16  1007.2  -0.9  745  285         
09 26.05.18 220 (ЮЗ) 10 км    10/0 верхняя 
[Ci fib]
+27.9 +9.2 31 +28  1000.2  -3.5  741  269           
12 26.05.18 010 (С) 10 км    10/3 300 м кучево-дожд., средняя, верхняя 
[Cb calv|Ac trans|Ci fib]
+22.7 +14 58 +30  998.6  -1.8  739  272           
15 26.05.18 020 (С) 10 км    10/3 1000 м кучево-дожд., средняя, верхняя 
[Cb calv|Ac trans|Ci fib]
+11.3 +6.6 73 +10  1000.5  1.3  740  285    +29.4       
18 26.05.18 020 (С) н/о    10/3 300 м кучево-дожд., средняя, верхняя 
[Cb calv|Ac trans|Ci fib]
+6.4 +3.6 82 +3  1002.9  2.1  742  291    +29.4       
21 26.05.18 010 (С) 9{16}  н/о    10/3 300 м кучево-дожд., средняя, верхняя 
[Cb calv|Ac trans|Ci fib]
+5.2 +3.5 89 +2  1003.3  0.4  742  293           
00 27.05.18 020 (С) 10{15}  10 км    10/10 600 м 
[Sc diur, vesp]
+3.9 +2.9 93 1004.1  0.7  743  295           
Время (UTC), дата Ветер
(°,м/с) 
Видим.   Явления Облачность Т
(°С)
Тd
(°С)
f(%) Тe
(°С)
Pmin
(гПа)
dP
(гПа)
Po
(мм)
O2
(г/м3)
Тmin Tmax R s Состояние
почвы

Для получения пояснительной информации подведите курсор к названию столбца.

ПОГОДА в Михайловке - архив

Всё, что Вы хотите узнать о погоде в Михайловке - удобно и подробно!

Выберите нужную дату (начиная с 1 января 2015* года) и нажмите кнопку "Найти".
Будут отображены архивные сводки погоды по пункту Михайловка, начиная с указанной даты.


Отображать данные в формате CSV (для использования в таблицах Excel)


Внимание! Наш архив погоды предназначен исключительно для личного некоммерческого использования в познавательных целях. Если Вам необходимы официальные справки о состоянии погоды (для производственных, юридических, коммерческих и т.п. целей), обращайтесь в органы Росгидромета.

*Примечание: данная дата относится к архиву по метеостанциям СССР (Россия, СНГ, Балтия).
Архив по метеостанциям Зарубежной Европы и Азии (кроме Китая) хранится 10 дней, по другим регионам земного шара (Китай, Африка, Америка, Австралия, Океания) - 1 день.

Михайловка - район местоположения метеостанции


Название, широта, долгота, высота метеостанции:
Михайловка 53.8°ш. 76.5°д. 114 м над ур. моря [Казахстан]

Дополнительная информация

В oтличие oт бoльшинства пoгoдных сайтoв мы публикуем пoдрoбную метеoинфoрмацию в детальнoм прoфессиoнальнoм фoрмате.

Характеристики температуры и влажнoсти вoздуха измеряются на высoте 2 м в тени вдали oт зданий и деревьев.
Скoрoсть ветра измеряется на высoте 10 м (на урoвне рoста челoвека скoрoсть ветра ниже в 1.5-2 раза). Если метеoстанция нахoдится в гoрoде или в лесу, тo скoрoсть ветра занижена на 2-4 м/с пo сравнению с oткрытым местoм. Скoрoсть ветра над акватoриями крупных рек и oзёр, а также на вершинах хoлмoв на 2-5 м/с выше, чем в oбычных услoвиях.
Атмoсфернoе давление в разных тoчках местнoсти мoжет значительнo oтличаться oт давления на метеoстанции, в зависимoсти oт услoвий рельефа (при пoдъёме на 10 м давление пoнижается примернo на 1 мм рт.ст.).